Weather History for Worland, WY

Change the Weather History Date:

Thursday, May 2, 2013

  Actual Average Record
Temperature  
Mean Temperature 42 °F 51 °F  
Max Temperature 56 °F 65 °F 91 °F (1985)
Min Temperature 27 °F 36 °F 26 °F (1972)
Degree Days  
Heating Degree Days 23 14  
Month to date heating degree days 51 29  
Since 1 July heating degree days 7230 7496  
Cooling Degree Days 0 0  
Month to date cooling degree days 0 0  
Year to date cooling degree days 0 1  
Moisture  
Dew Point 23 °F    
Average Humidity 56    
Maximum Humidity 92    
Minimum Humidity 19    
Precipitation  
Precipitation 0.00 in 0.05 in 0.45 in (1964)
Month to date precipitation 0.27 0.09  
Year to date precipitation 1.84 1.83  
Sea Level Pressure  
Sea Level Pressure 30.57 in    
Wind  
Wind Speed 4 mph (SSE)    
Max Wind Speed 13 mph    
Max Gust Speed 15 mph    
Visibility 10 miles    
Events      
T = Trace of Precipitation, MM = Missing Value Source: NWS Daily Summary

Daily Weather History Graph

Daily Weather History Graph

Search for Another Location

Airport:

Trip Planner

Search our weather history database for the weather conditions in past years. The results will help you decide how hot, cold, wet, or windy it might be!

Date:

Astronomy

May. 02, 2013 Rise Set
Actual Time 6:01 AM MDT 8:16 PM MDT
Civil Twilight 5:29 AM MDT 8:48 PM MDT
Nautical Twilight 4:50 AM MDT 9:28 PM MDT
Astronomical Twilight 4:06 AM MDT 10:12 PM MDT
Moon 2:06 AM MDT (5/2) 12:55 PM MDT (5/2)
Length of Visible Light 15h 18m
Length of Day
14h 14m
Waning Gibbous, 47% of the Moon is Illuminated
May 2
Waning Gibbous
May 9
New
May 17
First Quarter
May 24
Full
May 31
Last Quarter

Hourly Weather History & Observations

Time (MDT) Temp. Windchill Dew Point Humidity Pressure Visibility Wind Dir Wind Speed Gust Speed Precip Events Conditions
12:53 AM 32.0 °F 24.2 °F 28.9 °F 88% 30.69 in 10.0 mi SE 9.2 mph - N/A   Clear
1:53 AM 32.0 °F 26.4 °F 28.0 °F 85% 30.68 in 10.0 mi SSE 5.8 mph - N/A   Clear
2:53 AM 30.9 °F 22.8 °F 28.0 °F 89% 30.68 in 10.0 mi SSE 9.2 mph - N/A   Clear
3:53 AM 30.0 °F 26.5 °F 27.0 °F 88% 30.69 in 10.0 mi SSE 3.5 mph - N/A   Clear
4:53 AM 30.0 °F - 26.1 °F 85% 30.69 in 10.0 mi Calm Calm - N/A   Clear
5:53 AM 28.0 °F 20.8 °F 25.0 °F 88% 30.71 in 10.0 mi SSE 6.9 mph - N/A   Partly Cloudy
6:53 AM 30.0 °F - 26.1 °F 85% 30.72 in 10.0 mi Calm Calm - N/A   Clear
7:53 AM 33.1 °F 28.7 °F 27.0 °F 78% 30.73 in 10.0 mi South 4.6 mph - N/A   Clear
8:53 AM 37.0 °F 34.5 °F 26.1 °F 65% 30.71 in 10.0 mi South 3.5 mph - N/A   Clear
9:53 AM 39.9 °F - 26.1 °F 58% 30.70 in 10.0 mi Calm Calm - N/A   Clear
10:53 AM 44.1 °F - 25.0 °F 47% 30.68 in 10.0 mi Calm Calm - N/A   Clear
11:53 AM 46.9 °F - 18.0 °F 32% 30.64 in 10.0 mi SSW 4.6 mph - N/A   Clear
12:53 PM 48.9 °F - 15.1 °F 26% 30.61 in 10.0 mi Calm Calm - N/A   Clear
1:53 PM 51.1 °F - 17.1 °F 26% 30.57 in 10.0 mi NW 3.5 mph - N/A   Clear
2:53 PM 52.0 °F - 14.0 °F 22% 30.53 in 10.0 mi WSW 6.9 mph - N/A   Clear
3:53 PM 53.1 °F - 14.0 °F 21% 30.49 in 10.0 mi Calm Calm - N/A   Clear
4:53 PM 54.0 °F - 12.0 °F 19% 30.47 in 10.0 mi Calm Calm - N/A   Clear
5:53 PM 55.0 °F - 15.1 °F 21% 30.45 in 10.0 mi Calm Calm - N/A   Clear
6:53 PM 54.0 °F - 16.0 °F 22% 30.41 in 10.0 mi Variable 4.6 mph - N/A   Clear
7:53 PM 50.0 °F - 24.1 °F 36% 30.40 in 10.0 mi East 8.1 mph - N/A   Clear
8:53 PM 44.1 °F 39.0 °F 27.0 °F 51% 30.39 in 10.0 mi ESE 9.2 mph - N/A   Clear
9:53 PM 43.0 °F 36.4 °F 28.9 °F 58% 30.38 in 10.0 mi ESE 12.7 mph - N/A   Clear
10:53 PM 42.1 °F 36.6 °F 27.0 °F 55% 30.37 in 10.0 mi SE 9.2 mph - N/A   Clear
11:53 PM 39.9 °F - 27.0 °F 60% 30.35 in 10.0 mi Calm Calm - N/A   Clear